Regional Weather Roundup
Issued by NWS Albany, NY

Home | Current Version | Previous Version | Text Only | Print | Product List | Glossary On
Versions: 1 2 3 4 5 6 7 8 9 10 11 12 13 14 15 16 17 18 19 20 21 22 23 24 25 26 27
000
ASUS41 KALY 300710
RWRALY

NEW YORK STATE HOURLY WEATHER ROUNDUP
NATIONAL WEATHER SERVICE ALBANY NY
300 AM EDT THU MAR 30 2017

NOTE: "FAIR" INDICATES FEW OR NO CLOUDS BELOW 12,000 FEET WITH NO
SIGNIFICANT WEATHER AND/OR NO OBSTRUCTIONS TO VISIBILITY.

NYZ032-033-038>043-046>054-057>066-NYZ062>081-082-084-300800-
EAST


CITY           SKY/WX    TMP DP  RH WIND       PRES   REMARKS
ALBANY         PTCLDY    32  21  64 N5        30.22S WCI  27
GLENS FALLS    CLEAR     33  19  56 NE6       30.22S WCI  28
POUGHKEEPSIE   CLEAR     28  23  81 CALM      30.20F
NEWBURGH       CLEAR     34  30  86 N6        30.21F WCI  29
MONTGOMERY     CLEAR     28  24  85 CALM      30.19F
WHITE PLAINS   PTCLDY    34  21  59 N6        30.18F WCI  29
ISLIP          PTCLDY    36  22  56 N5        30.18F WCI  32
NEW YORK CITY  PTCLDY    42  23  46 N8        30.21F
CENTRAL PARK   PTCLDY    40  21  46 NE9G17    30.23S WCI  34
$$

NYZ005>009-017-018-044>046-055-056-300800-
CENTRAL


CITY           SKY/WX    TMP DP  RH WIND       PRES   REMARKS
FULTON         CLEAR     29  24  82 CALM      30.27R
SYRACUSE       PTCLDY    27  25  92 CALM      30.27R
ROME           CLEAR     25  22  88 NW5       30.27R WCI  19
ELMIRA         CLOUDY    29  24  82 SW7       30.26R WCI  22
BINGHAMTON     CLEAR     29  21  72 NW5       30.19R WCI  24
MONTICELLO     CLEAR     28  21  74 SW3       30.18S
$$

NYZ026>034-041>043-087-300800-
NORTH


CITY           SKY/WX    TMP DP  RH WIND       PRES   REMARKS
WATERTOWN      CLEAR     22  20  92 CALM      30.28R
FORT DRUM      NOT AVBL
MASSENA        CLEAR     28  21  75 NW5       30.28F WCI  23
SARANAC LAKE   CLOUDY    29  16  58 N9        30.17F WCI  20
PLATTSBURGH    PTCLDY    33  18  53 NW8       30.23F WCI  26
$$

NYZ001>004-010>016-019>021-085-300800-
WEST


CITY           SKY/WX    TMP DP  RH WIND       PRES   REMARKS
NIAGARA FALLS  PTCLDY    37  27  67 E5        30.26S WCI  33
BUFFALO        MOCLDY    34  26  72 NE7       30.25F WCI  28
DUNKIRK        CLOUDY    35  28  75 NE8       30.24S WCI  29
JAMESTOWN      CLOUDY    36  23  60 E7        30.17F WCI  30
WELLSVILLE     CLOUDY    31  23  72 E6        30.22R WCI  25
ROCHESTER      CLOUDY    35  25  66 CALM      30.29R
PENN YAN       PTCLDY    29  24  82 CALM      30.26R
$$

             KEY
       WCI = WIND CHILL INDEX
       VSB = VISIBILITY
       HX  = HEAT INDEX
$$




USA.gov is the U.S. government's official web portal to all federal, state and local government web resources and services.